[[{"header":{"parameterUnit":"m.s-1","parameterCategory":1,"la1":30.2991,"la2":30.254,"lo1":-89.0895,"lo2":-89.0444,"dy":0.0017,"dx":0.0017,"nx":28,"ny":28,"refTime":"2025-08-13T03:00:00:Z","depth":0,"parameterNumber":2,"parameterNumberName":"U-component_of_WINDS"},"data":[0,0,0,0,0,0,0,0,0,0,0,0,0,0,0,0,0,0,0,0,0,0,0,0,0,0,0,0,0,0,0,0,0,0,0,0,0,0,0,0,0,0,0,0,0,0,0,0,0,0,0,0,0,0,0,0,0,0,2.7835,2.7836,0,2.7994,2.7996,2.7998,2.7971,2.7968,2.7965,2.7962,2.8131,2.8137,2.8145,0,0,0,0,0,0,0,0,0,0,0,0,0,2.7509,2.7515,2.7834,2.7836,2.7838,2.7994,2.7996,2.7998,2.7971,2.7968,2.7964,2.7961,2.8128,2.8137,2.8145,0,0,0,0,0,0,0,0,0,0,0,0,0,2.7658,2.7517,2.7834,2.7843,2.7846,2.7994,2.7996,2.7999,2.7972,2.7968,2.7963,2.7959,2.8125,2.8136,2.8146,2.8296,0,0,2.8179,2.8183,0,0,0,0,0,0,0,0,2.765,2.767,2.784,2.7843,2.7846,2.7958,2.7943,2.8099,2.7973,2.7924,2.7962,2.7957,2.8077,2.8091,2.8131,2.8304,2.8311,2.818,2.8186,2.8191,2.8194,0,0,0,0,0,0,0,2.7639,2.7663,2.7898,2.7843,2.7846,2.7841,2.7857,2.7973,2.8022,2.7928,2.7926,2.7945,2.8078,2.812,2.8134,2.8314,2.8179,2.8189,2.8196,2.82,2.8618,2.8622,0,0,0,0,0,0,2.7626,2.7655,2.7893,2.7903,2.7735,2.785,2.7869,2.7926,2.8021,2.8031,2.7949,2.7944,2.8104,2.8122,2.814,2.8321,2.8191,2.8201,2.8207,2.8613,2.8619,2.8624,0,0,0,0,0,0,2.7619,2.7647,2.7886,2.7778,2.7808,2.786,2.7925,2.7932,2.7974,2.8037,2.8046,2.7983,2.8102,2.8125,2.8257,2.8326,2.8205,2.8215,2.8607,2.8615,2.8621,2.8684,0,0,0,0,0,0,2.761,2.7645,2.7701,2.778,2.7814,2.7999,2.793,2.7938,2.7992,2.7987,2.8071,2.8081,2.81,2.8241,2.8268,2.8339,2.8223,2.8601,2.8611,2.8619,2.8676,2.8692,2.8706,0,0,0,0,0,2.7598,2.7714,2.7704,2.7733,2.7886,2.8003,2.8023,2.8042,2.7998,2.8056,2.8096,2.8078,2.8315,2.8255,2.8285,2.836,2.8597,2.8608,2.8618,2.8669,2.8689,2.8706,0,0,0,0,0,0,2.7644,2.7724,2.7715,2.7859,2.7924,2.7998,2.8072,2.8062,2.8143,2.8134,2.8155,2.8174,2.8308,2.8348,2.828,2.851,2.845,2.8467,2.8479,2.8498,2.8513,2.85,2.8232,0,0,0,0,0,2.7671,2.7759,2.7825,2.7946,2.7979,2.802,2.8072,2.808,2.8149,2.8177,2.8227,2.8296,2.8385,2.8444,2.853,2.8682,2.87,2.8748,2.8764,2.8776,2.879,2.8872,2.8894,2.8659,2.8658,2.8658,0,0,2.7728,2.7782,2.7837,2.7956,2.8008,2.8099,2.8043,2.8143,2.821,2.8193,2.8319,2.8359,2.8437,2.8579,2.8644,2.8616,2.8859,2.8789,2.8798,2.8806,2.8885,2.8908,2.8928,2.8666,2.8664,2.8663,0,0,2.7877,2.7927,2.8033,2.8085,2.8164,2.819,2.8215,2.8291,2.8316,2.8443,2.8431,2.8514,2.8668,2.8724,2.8772,2.8943,2.893,2.897,2.905,2.913,2.9148,2.9165,2.9225,2.9246,2.8985,2.8985,2.8985,0,2.7938,2.8073,2.8089,2.8189,2.8242,2.8229,2.8336,2.8387,2.849,2.8527,2.8494,2.8687,2.8739,2.8893,2.8934,2.8975,2.9005,2.896,2.9144,2.9161,2.9176,2.9234,2.9256,2.8989,2.8989,2.8988,2.8988,0,2.8143,2.8238,2.8314,2.8411,2.8473,2.8577,2.8609,2.867,2.8674,2.8704,2.8834,2.8896,2.8993,2.9031,2.9036,2.9186,2.9166,2.9139,2.9079,2.9203,2.9257,2.9279,2.8995,2.8994,2.8992,2.8991,0,0,2.8326,2.843,2.8458,2.8501,2.8587,2.8661,2.8764,2.8858,2.8909,2.8981,2.9068,2.9199,2.9173,2.9229,2.924,2.931,2.944,2.9274,2.9276,2.9302,2.9609,2.9628,2.9653,2.9432,2.9437,2.944,2.9602,0,2.8482,2.8662,2.8679,2.8841,2.8928,2.8917,2.9006,2.9069,2.91,2.918,2.9215,2.9307,2.9267,2.93,2.9369,2.9409,2.9502,2.9398,2.9514,2.9518,2.9493,2.9682,2.9703,2.9853,2.9623,2.9627,2.963,0,2.8688,2.8763,2.8933,2.9005,2.9043,2.9123,2.921,2.9286,2.9357,2.9375,2.9437,2.9438,2.9546,2.9482,2.9631,2.956,2.9608,2.9635,2.9642,2.9652,2.958,2.9697,2.9901,2.9923,2.9663,2.9661,2.9658,0,2.8802,2.8947,2.9066,2.9105,2.9192,2.9249,2.9288,2.9355,2.941,2.9487,2.9523,2.9613,2.9662,2.9731,2.9758,2.9709,2.9904,2.9844,2.9923,2.9922,2.9963,2.996,3.0177,2.9997,2.9996,2.9996,2.9995,0,2.8974,2.9078,2.9119,2.9192,2.9309,2.9329,2.9444,2.9481,2.954,2.9622,2.9619,2.9696,2.9726,2.9808,2.983,2.9949,2.9972,2.9989,2.9994,2.9989,2.9987,3.002,3.001,3.0002,3.0001,2.9999,2.9998,0,2.912,2.9152,2.9282,2.9354,2.9374,2.9457,2.9519,2.9591,2.9621,2.9724,2.9749,2.9797,2.9894,2.9927,3.0045,3.0059,3.0197,3.0194,3.0173,3.0173,3.025,3.0242,3.0495,3.0529,3.0327,3.0329,3.0331,0,2.9227,2.9306,2.9386,2.944,2.9481,2.9567,2.9623,2.9646,2.9705,2.9792,2.9853,2.9948,3.0026,3.0181,3.0227,3.0317,3.0315,3.0397,3.0328,3.0321,3.0315,3.0309,3.0317,3.041,3.0412,3.0414,3.0415,0,2.9413,2.9424,2.9504,2.9589,2.9656,2.9725,2.9791,2.9836,2.9869,2.9935,3.0032,3.0092,3.0212,3.0306,3.0398,3.044,3.0434,3.0436,3.0459,3.0455,3.0439,3.0447,3.0207,3.043,3.0429,3.0428,3.0427,3.0426,2.9542,2.9612,2.9678,2.9767,2.9819,2.9882,2.9952,2.9991,3.0072,3.0169,3.0179,3.0284,3.0354,3.0476,3.0522,3.0606,3.0583,3.0616,3.0625,3.0632,3.0637,3.0426,3.0623,3.0623,3.0622,3.0622,3.0622,0,2.9726,2.9768,2.985,2.9942,3.0013,2.9999,3.0072,3.0132,3.0224,3.0288,3.0364,3.0476,3.0568,3.0622,3.0714,3.0771,3.077,3.0794,3.079,3.0799,3.0653,3.0623,3.0793,3.0793,3.0793,3.0793,3.0793,3.0793,2.983,2.9947,2.9967,3.011,3.0152,3.0253,3.0296,3.0354,3.0405,3.053,3.0606,3.0639,3.07,3.0796,3.088,3.0894,3.0928,3.0954,3.0965,3.0827,3.081,3.0793,3.0765,3.0961,3.0962,3.1104,3.1106,3.1107]},{"header":{"parameterUnit":"m.s-1","parameterCategory":1,"la1":30.2991,"la2":30.254,"lo1":-89.0895,"lo2":-89.0444,"dy":0.0017,"dx":0.0017,"nx":28,"ny":28,"refTime":"2025-08-13T03:00:00:Z","depth":0,"parameterNumber":3,"parameterNumberName":"V-component_of_WINDS"},"data":[0,0,0,0,0,0,0,0,0,0,0,0,0,0,0,0,0,0,0,0,0,0,0,0,0,0,0,0,0,0,0,0,0,0,0,0,0,0,0,0,0,0,0,0,0,0,0,0,0,0,0,0,0,0,0,0,0,0,2.53,2.5301,0,2.5427,2.5428,2.543,2.5437,2.5436,2.5434,2.5433,2.5563,2.5568,2.5572,0,0,0,0,0,0,0,0,0,0,0,0,0,2.5064,2.5068,2.53,2.5301,2.5303,2.5427,2.5428,2.543,2.5437,2.5436,2.5434,2.5432,2.5561,2.5567,2.5573,0,0,0,0,0,0,0,0,0,0,0,0,0,2.5176,2.5069,2.53,2.5322,2.5325,2.5426,2.5429,2.5431,2.5438,2.5436,2.5433,2.5431,2.5559,2.5566,2.5574,2.5662,0,0,2.5596,2.5599,0,0,0,0,0,0,0,0,2.517,2.5185,2.5317,2.532,2.5324,2.5414,2.5393,2.5508,2.5438,2.5395,2.5433,2.543,2.5515,2.5526,2.5554,2.5668,2.5674,2.5596,2.5601,2.5604,2.5606,0,0,0,0,0,0,0,2.5162,2.5179,2.535,2.5319,2.5323,2.5325,2.5339,2.5415,2.5466,2.5399,2.5399,2.5414,2.5517,2.5547,2.5558,2.5675,2.5596,2.5603,2.5607,2.561,2.5867,2.587,0,0,0,0,0,0,2.515,2.5173,2.5346,2.5354,2.524,2.5331,2.5346,2.5387,2.5465,2.5475,2.5416,2.5414,2.5536,2.5549,2.5562,2.567,2.5604,2.5611,2.5615,2.5865,2.5868,2.587,0,0,0,0,0,0,2.5145,2.5165,2.5341,2.5264,2.5286,2.5337,2.5384,2.5391,2.5422,2.5478,2.5487,2.5438,2.5535,2.5552,2.5637,2.5675,2.5614,2.562,2.5862,2.5866,2.5869,2.5887,0,0,0,0,0,0,2.5138,2.5163,2.5197,2.5264,2.529,2.5414,2.5386,2.5395,2.5434,2.5433,2.5501,2.5511,2.5535,2.5626,2.5644,2.5684,2.5626,2.5859,2.5863,2.5868,2.5883,2.5891,2.5898,0,0,0,0,0,2.5129,2.5198,2.5199,2.522,2.5334,2.5416,2.5431,2.5457,2.5437,2.5472,2.5508,2.5508,2.5668,2.5635,2.5655,2.5697,2.5856,2.5862,2.5867,2.588,2.589,2.5897,0,0,0,0,0,0,2.5134,2.5207,2.5209,2.5301,2.5352,2.5417,2.5462,2.5466,2.5524,2.5521,2.5551,2.5566,2.565,2.5682,2.5644,2.5787,2.576,2.577,2.5762,2.5772,2.5779,2.5769,2.5632,0,0,0,0,0,2.5146,2.5206,2.5267,2.5342,2.5367,2.541,2.5447,2.5463,2.5517,2.5538,2.5581,2.5633,2.5695,2.5735,2.5795,2.5888,2.5903,2.5927,2.5934,2.594,2.5948,2.5999,2.601,2.5889,2.5889,2.5889,0,0,2.5171,2.5218,2.5254,2.5344,2.5385,2.5447,2.5428,2.5495,2.5541,2.5549,2.5631,2.5664,2.5725,2.5814,2.5855,2.5843,2.5985,2.5947,2.5951,2.5956,2.6006,2.6017,2.6027,2.5893,2.5892,2.5891,0,0,2.5248,2.529,2.5357,2.5398,2.5461,2.5489,2.5505,2.5569,2.5591,2.5675,2.5682,2.5737,2.5843,2.5886,2.5921,2.6014,2.6016,2.6033,2.607,2.6119,2.6128,2.6137,2.6169,2.6181,2.6041,2.6041,2.6041,0,2.5271,2.5364,2.539,2.5457,2.5496,2.5506,2.5573,2.5613,2.5692,2.5719,2.5704,2.5837,2.5879,2.5978,2.6,2.6029,2.6048,2.6025,2.6125,2.6134,2.6142,2.6173,2.6186,2.6042,2.6042,2.6042,2.6042,0,2.5389,2.5453,2.55,2.5576,2.562,2.5687,2.5724,2.5765,2.5777,2.5806,2.5891,2.5941,2.6011,2.6036,2.6048,2.6137,2.6127,2.6118,2.6092,2.6155,2.6185,2.6197,2.6044,2.6044,2.6043,2.6043,0,0,2.5472,2.5562,2.5578,2.5613,2.5683,2.5733,2.58,2.5868,2.5903,2.5958,2.6014,2.6104,2.6096,2.6136,2.6154,2.6197,2.6266,2.6183,2.6185,2.6196,2.6366,2.6372,2.6385,2.6268,2.6271,2.6273,2.6361,0,2.5556,2.5676,2.5701,2.5804,2.5864,2.5874,2.5932,2.5981,2.601,2.6065,2.6097,2.616,2.6145,2.617,2.6213,2.6249,2.6301,2.6243,2.6321,2.6323,2.6305,2.6401,2.6408,2.6488,2.6373,2.6375,2.6376,0,2.5671,2.5727,2.5836,2.5897,2.5923,2.5975,2.604,2.6092,2.6148,2.6166,2.6211,2.6223,2.6293,2.6263,2.636,2.632,2.6353,2.6376,2.6379,2.6387,2.6353,2.6411,2.6515,2.6527,2.6395,2.6393,2.6392,0,2.572,2.5823,2.5901,2.593,2.6004,2.604,2.6073,2.6126,2.6166,2.6222,2.6248,2.6312,2.6347,2.6396,2.6425,2.6401,2.6519,2.6492,2.6536,2.6535,2.656,2.6558,2.667,2.6582,2.6582,2.6582,2.6582,0,2.5811,2.5877,2.5924,2.5972,2.6046,2.6075,2.6148,2.618,2.6228,2.6282,2.6295,2.6346,2.6382,2.6437,2.6461,2.6537,2.6553,2.6569,2.6574,2.6568,2.6566,2.659,2.6585,2.6585,2.6584,2.6584,2.6583,0,2.5878,2.5913,2.5998,2.6061,2.6078,2.613,2.6184,2.6231,2.626,2.6329,2.6346,2.6392,2.6459,2.6493,2.6576,2.6591,2.6677,2.6679,2.6658,2.666,2.6702,2.6697,2.6833,2.6852,2.6752,2.6753,2.6753,0,2.5933,2.5984,2.6052,2.6089,2.6123,2.6183,2.6223,2.6253,2.6294,2.6361,2.64,2.6467,2.6522,2.6628,2.6668,2.6732,2.6735,2.6778,2.6745,2.6736,2.6735,2.6732,2.6737,2.6784,2.6785,2.6786,2.6787,0,2.6028,2.6043,2.61,2.6163,2.621,2.6262,2.6312,2.6342,2.6381,2.6427,2.6494,2.6537,2.6621,2.6688,2.6754,2.6787,2.6793,2.6797,2.681,2.6804,2.6789,2.6797,2.6674,2.6794,2.6793,2.6792,2.6792,2.6792,2.6091,2.6136,2.6191,2.6254,2.6296,2.6342,2.639,2.6424,2.6482,2.6552,2.6567,2.6639,2.6693,2.6783,2.6818,2.6874,2.6865,2.6885,2.689,2.6894,2.6896,2.678,2.6887,2.6886,2.6886,2.6886,2.6886,0,2.6186,2.6221,2.6279,2.6349,2.6399,2.64,2.6457,2.6498,2.6561,2.6611,2.6665,2.6743,2.6807,2.6852,2.6918,2.6954,2.6958,2.697,2.6967,2.6975,2.69,2.6882,2.6965,2.6965,2.6965,2.6965,2.6965,2.6965,2.6241,2.6318,2.6338,2.6436,2.6471,2.6541,2.6573,2.6616,2.6656,2.6743,2.6796,2.6825,2.6874,2.6942,2.7001,2.7013,2.7036,2.7048,2.706,2.6989,2.698,2.6972,2.6955,2.7053,2.7053,2.713,2.713,2.7131]}]]